Pacific Princess — ZCDS3 — position and weather

sailwx.info

Track history (hours):
 
Tides and Currents Weather Stations Pressure Air Temp Water Temp Dewpoint Dewpoint Depression Visibility Wind Speed Wind Dir Waves Ship Positions

Pacific Princess (Bermuda)

Last reported at 2017-Aug-20 15:13 UTC. Time now 2017-Aug-20 15:37 UTC.
Position N 51°07' E 001°19'.

Length 180.5 m; beam 25.6 m; draft 6 m.

Type: Passenger vessel. MMSI: 310504000.

Date/timePositionNaut miles runAvg speedWind from/ knotsBaromVisibWave heightAir tempDewpointWater temp
2017-Aug-20 15:13N 51°07' E 001°19'1 0.1
2017-Aug-20 04:18N 51°07' E 001°21'311.6
2017-Aug-20 04:01N 51°08' E 001°27'611.1
2017-Aug-20 03:31N 51°10' E 001°35'612.2
2017-Aug-20 03:01N 51°13' E 001°43'611.7
2017-Aug-20 02:31N 51°18' E 001°48'612.0
2017-Aug-20 02:00N 51°24' E 001°51'612.1
2017-Aug-20 01:31N 51°29' E 001°55'611.7
2017-Aug-20 01:00N 51°34' E 002°01'611.9
2017-Aug-20 00:30N 51°39' E 002°05'611.8
2017-Aug-19 23:59N 51°45' E 002°11'6611.7
2017-Aug-19 18:19N 52°50' E 002°23'1611.4
2017-Aug-19 16:57N 53°01' E 002°05'512.1
2017-Aug-19 16:30N 53°04' E 001°58'612.2
2017-Aug-19 16:00N 53°08' E 001°49'612.2
2017-Aug-19 15:30N 53°09' E 001°39'612.0
2017-Aug-19 15:00N 53°10' E 001°30'6611.7
2017-Aug-19 09:22N 54°04' E 000°24'411.9
2017-Aug-19 09:00N 54°07' E 000°20'612.0
2017-Aug-19 08:31N 54°13' E 000°15'611.9
2017-Aug-19 08:01N 54°18' E 000°10'611.9
2017-Aug-19 07:30N 54°23' E 000°04'611.7
2017-Aug-19 07:00N 54°28' W 000°01'612.1
2017-Aug-19 06:30N 54°33' W 000°06'612.0
2017-Aug-19 06:01N 54°38' W 000°12'611.9
2017-Aug-19 05:31N 54°43' W 000°17'3212.0
2017-Aug-19 02:49N 55°10' W 000°47'1011.7
2017-Aug-19 01:56N 55°19' W 000°57'913.3
2017-Aug-19 01:15N 55°27' W 001°06'312.0
2017-Aug-19 01:00N 55°29' W 001°08'611.7
2017-Aug-19 00:30N 55°34' W 001°14'611.7
2017-Aug-19 00:00N 55°38' W 001°21'1012.0
2017-Aug-18 23:09N 55°46' W 001°33'211.9
2017-Aug-18 23:00N 55°47' W 001°36'612.1
2017-Aug-18 22:30N 55°50' W 001°45'612.1
2017-Aug-18 22:01N 55°54' W 001°53'1312.1
2017-Aug-18 20:56N 56°00' W 002°14'512.1
2017-Aug-18 20:30N 56°02' W 002°22'612.0
2017-Aug-18 20:00N 56°05' W 002°32'611.6
2017-Aug-18 19:30N 56°06' W 002°42'612.3
2017-Aug-18 19:00N 56°05' W 002°53'612.2
2017-Aug-18 18:30N 56°03' W 003°03'713.8
2017-Aug-18 18:00N 56°02' W 003°15'5 0.2
2017-Aug-17 08:39N 56°00' W 003°24'3 8.8
2017-Aug-17 08:21N 56°01' W 003°20'513.3
2017-Aug-17 08:00N 56°03' W 003°12'714.3
2017-Aug-17 07:31N 56°04' W 002°59'611.4
2017-Aug-17 07:00N 56°06' W 002°50'714.0
2017-Aug-17 06:31N 56°08' W 002°38'917.1
2017-Aug-17 06:00N 56°11' W 002°24'815.6
2017-Aug-17 05:31N 56°17' W 002°14'817.0
2017-Aug-17 05:01N 56°25' W 002°10'816.6
2017-Aug-17 04:31N 56°33' W 002°06'816.2
2017-Aug-17 04:01N 56°41' W 002°01'1416.0
2017-Aug-17 03:06N 56°55' W 001°54'515.7
2017-Aug-17 02:49N 56°59' W 001°51'515.4
2017-Aug-17 02:30N 57°04' W 001°49'815.4
2017-Aug-17 02:01N 57°11' W 001°44'715.0
2017-Aug-17 01:31N 57°18' W 001°40'1414.7
2017-Aug-17 00:33N 57°32' W 001°33'114.6
2017-Aug-17 00:30N 57°32' W 001°33'714.4
2017-Aug-17 00:00N 57°39' W 001°40'714.6
2017-Aug-16 23:30N 57°45' W 001°47'815.4
2017-Aug-16 23:00N 57°51' W 001°56'5115.6
2017-Aug-16 19:46N 58°33' W 002°50'416.0
2017-Aug-16 19:30N 58°36' W 002°53'815.7
2017-Aug-16 19:00N 58°42' W 003°04'816.5
2017-Aug-16 18:30N 58°43' W 003°20'917.3
2017-Aug-16 18:00N 58°43' W 003°36'817.1
2017-Aug-16 17:30N 58°43' W 003°53'917.2
2017-Aug-16 17:01N 58°43' W 004°09'917.5
2017-Aug-16 16:30N 58°43' W 004°26'3016.1
2017-Aug-16 14:39N 58°32' W 005°20'13117.1
2017-Aug-16 07:00N 56°36' W 007°12'4816.0 120 / 251011.010.8 14.511.712.0
2017-Aug-16 03:58N 55°49' W 006°56'815.7
2017-Aug-16 03:28N 55°42' W 006°47'6215.9
2017-Aug-15 23:33N 54°57' W 005°32'117.6
2017-Aug-15 23:29N 54°56' W 005°32'918.0
2017-Aug-15 23:01N 54°48' W 005°24'918.1
2017-Aug-15 22:31N 54°40' W 005°19'918.2
2017-Aug-15 22:01N 54°31' W 005°15'917.4
2017-Aug-15 21:31N 54°22' W 005°15'918.1
2017-Aug-15 21:01N 54°14' W 005°20'917.9
2017-Aug-15 20:30N 54°05' W 005°26'1217.5
2017-Aug-15 19:49N 53°54' W 005°34'86 4.8
2017-Aug-15 01:49N 52°30' W 005°56'619.0
2017-Aug-15 01:30N 52°24' W 005°57'918.9
2017-Aug-15 01:01N 52°14' W 005°58'918.0
2017-Aug-15 00:30N 52°06' W 006°04'918.2
2017-Aug-15 00:01N 52°02' W 006°17'1018.6
2017-Aug-14 23:29N 51°59' W 006°32'1017.9
2017-Aug-14 22:55N 52°03' W 006°47'717.4
2017-Aug-14 22:31N 52°07' W 006°57'5 9.8
2017-Aug-14 22:00N 52°12' W 006°56'4 7.2
2017-Aug-14 21:30N 52°15' W 006°59'2 3.7
2017-Aug-14 21:00N 52°16' W 007°02'0 0.0
2017-Aug-14 19:17N 52°16' W 007°02'0 0.0
2017-Aug-14 18:47N 52°16' W 007°02'0 0.0
2017-Aug-14 18:23N 52°16' W 007°02'0 0.0
2017-Aug-14 15:29N 52°16' W 007°02'0 0.0
2017-Aug-14 14:53N 52°16' W 007°02'0 0.0
2017-Aug-14 14:29N 52°16' W 007°02'0 0.0
2017-Aug-14 13:59N 52°16' W 007°02'0 0.0
2017-Aug-14 13:29N 52°16' W 007°02'0 0.0
2017-Aug-14 12:59N 52°16' W 007°02'0 0.0
2017-Aug-14 12:29N 52°16' W 007°02'0 0.0
2017-Aug-14 11:47N 52°16' W 007°02'0 0.0
2017-Aug-14 09:53N 52°16' W 007°02'0 1.2
2017-Aug-14 09:30N 52°16' W 007°01'2 4.3
2017-Aug-14 08:59N 52°15' W 006°59'4 8.7
2017-Aug-14 08:30N 52°11' W 006°56'4 8.9
2017-Aug-14 08:00N 52°06' W 006°58'612.1
2017-Aug-14 07:30N 52°00' W 006°55'612.1
2017-Aug-14 06:59N 51°54' W 006°52'8612.1
2017-Aug-13 23:52N 50°34' W 006°03'512.0
2017-Aug-13 23:29N 50°30' W 005°60'612.0
2017-Aug-13 23:00N 50°25' W 005°57'611.9
2017-Aug-13 22:29N 50°19' W 005°54'612.1
2017-Aug-13 22:00N 50°13' W 005°54'611.8
2017-Aug-13 21:29N 50°07' W 005°54'612.2
2017-Aug-13 21:00N 50°01' W 005°54'612.0
2017-Aug-13 20:30N 49°55' W 005°54'2911.2
2017-Aug-13 17:57N 49°43' W 005°14'712.1
2017-Aug-13 17:24N 49°41' W 005°04'2111.9
2017-Aug-13 15:38N 49°45' W 004°32'312.0
2017-Aug-13 15:24N 49°45' W 004°28'612.0
2017-Aug-13 14:53N 49°47' W 004°19'512.0
2017-Aug-13 14:30N 49°48' W 004°12'814.9
2017-Aug-13 14:00N 49°48' W 004°00'237.1 190 / 51022.510.8 16.810.718.0
2017-Aug-13 13:57N 49°49' W 004°02'512.1
2017-Aug-13 13:30N 49°50' W 003°54'612.2
2017-Aug-13 13:00N 49°52' W 003°44'612.1
2017-Aug-13 12:30N 49°53' W 003°35'612.2
2017-Aug-13 12:00N 49°55' W 003°26'612.2
2017-Aug-13 11:30N 49°56' W 003°17'612.2
2017-Aug-13 11:00N 49°58' W 003°08'612.0
2017-Aug-13 10:30N 49°59' W 002°59'612.0
2017-Aug-13 10:00N 50°01' W 002°50'612.1
2017-Aug-13 09:30N 50°02' W 002°40'2512.8
2017-Aug-13 07:35N 50°09' W 002°04'218.8
2017-Aug-13 07:30N 50°09' W 002°01'919.5
2017-Aug-13 07:01N 50°12' W 001°47'1020.1
2017-Aug-13 06:30N 50°15' W 001°32'4620.5
2017-Aug-13 04:17N 50°26' W 000°23'619.2
2017-Aug-13 03:59N 50°28' W 000°14'918.6
2017-Aug-13 03:30N 50°31' W 000°01'918.1
2017-Aug-13 03:00N 50°34' E 000°13'917.6
2017-Aug-13 02:30N 50°36' E 000°26'816.7
2017-Aug-13 02:00N 50°39' E 000°38'816.5
2017-Aug-13 01:30N 50°44' E 000°48'916.3
2017-Aug-13 00:59N 50°49' E 000°60'816.5
2017-Aug-13 00:30N 50°55' E 001°08'917.3
2017-Aug-13 00:00N 51°02' E 001°16'510.9
2017-Aug-12 23:30N 51°07' E 001°20'1 1.1
2017-Aug-12 22:59N 51°07' E 001°19'0 0.0
2017-Aug-12 22:26N 51°07' E 001°19'0 0.0
2017-Aug-12 21:56N 51°07' E 001°19'0 0.0
2017-Aug-12 21:26N 51°07' E 001°19'0 0.0
2017-Aug-12 20:56N 51°07' E 001°19'0 0.0
2017-Aug-12 20:29N 51°07' E 001°19'0 0.0
2017-Aug-12 19:56N 51°07' E 001°19'0 0.0
2017-Aug-12 08:58N 51°07' E 001°19'0 0.0
2017-Aug-12 08:28N 51°07' E 001°19'0 0.0
2017-Aug-12 07:52N 51°07' E 001°19'0 0.0
2017-Aug-12 07:22N 51°07' E 001°19'0 0.0
2017-Aug-12 06:16N 51°07' E 001°19'0 0.0
2017-Aug-12 05:52N 51°07' E 001°19'0 0.0
2017-Aug-12 05:16N 51°07' E 001°19'0 0.0
2017-Aug-12 04:41N 51°07' E 001°19'0 0.8
2017-Aug-12 04:30N 51°07' E 001°20'4 8.4
2017-Aug-12 04:00N 51°08' E 001°26'611.5
2017-Aug-12 03:30N 51°10' E 001°35'713.7
2017-Aug-12 03:01N 51°13' E 001°44'713.8
2017-Aug-12 02:30N 51°20' E 001°49'612.5
2017-Aug-12 02:00N 51°25' E 001°53'611.7
2017-Aug-12 01:30N 51°29' E 001°60'713.8
2017-Aug-12 01:00N 51°34' E 002°08'714.2
2017-Aug-12 00:30N 51°39' E 002°16'1114.9
2017-Aug-11 23:47N 51°47' E 002°28'714.9
2017-Aug-11 23:20N 51°52' E 002°35'7714.8
2017-Aug-11 18:09N 53°08' E 002°40'212.5
2017-Aug-11 18:00N 53°10' E 002°41'24715.4
2017-Aug-11 02:00N 57°12' E 004°06'10321.1 210 / 201017.810.8 15.011.714.0
2017-Aug-10 21:07N 58°54' E 004°35'317.5
2017-Aug-10 20:57N 58°57' E 004°36'817.3
2017-Aug-10 20:29N 59°04' E 004°38'2117.4
2017-Aug-10 19:16N 59°25' E 004°44'518.1
2017-Aug-10 19:00N 59°30' E 004°45'917.9
2017-Aug-10 18:30N 59°39' E 004°48'918.0
2017-Aug-10 18:00N 59°48' E 004°50'917.8
2017-Aug-10 17:30N 59°57' E 004°53'917.7
2017-Aug-10 17:00N 60°06' E 004°54'815.2
2017-Aug-10 16:30N 60°10' E 005°08'612.7
2017-Aug-10 16:00N 60°16' E 005°09'612.3
2017-Aug-10 15:30N 60°22' E 005°10'  
Track history (hours):
 
Tides and Currents Weather Stations Pressure Air Temp Water Temp Dewpoint Dewpoint Depression Visibility Wind Speed Wind Dir Waves Ship Positions

Pacific Princess (Bermuda)

Last reported at 2017-Aug-20 15:13 UTC. Time now 2017-Aug-20 15:37 UTC.
Position N 51°07' E 001°19'.

Length 180.5 m; beam 25.6 m; draft 6 m.

Type: Passenger vessel. MMSI: 310504000.

Date/timePositionNaut miles runAvg speedWind from/ knotsBaromVisibWave heightAir tempDewpointWater temp
2017-Aug-20 15:13N 51°07' E 001°19'1 0.1
2017-Aug-20 04:18N 51°07' E 001°21'311.6
2017-Aug-20 04:01N 51°08' E 001°27'611.1
2017-Aug-20 03:31N 51°10' E 001°35'612.2
2017-Aug-20 03:01N 51°13' E 001°43'611.7
2017-Aug-20 02:31N 51°18' E 001°48'612.0
2017-Aug-20 02:00N 51°24' E 001°51'612.1
2017-Aug-20 01:31N 51°29' E 001°55'611.7
2017-Aug-20 01:00N 51°34' E 002°01'611.9
2017-Aug-20 00:30N 51°39' E 002°05'611.8
2017-Aug-19 23:59N 51°45' E 002°11'6611.7
2017-Aug-19 18:19N 52°50' E 002°23'1611.4
2017-Aug-19 16:57N 53°01' E 002°05'512.1
2017-Aug-19 16:30N 53°04' E 001°58'612.2
2017-Aug-19 16:00N 53°08' E 001°49'612.2
2017-Aug-19 15:30N 53°09' E 001°39'612.0
2017-Aug-19 15:00N 53°10' E 001°30'6611.7
2017-Aug-19 09:22N 54°04' E 000°24'411.9
2017-Aug-19 09:00N 54°07' E 000°20'612.0
2017-Aug-19 08:31N 54°13' E 000°15'611.9
2017-Aug-19 08:01N 54°18' E 000°10'611.9
2017-Aug-19 07:30N 54°23' E 000°04'611.7
2017-Aug-19 07:00N 54°28' W 000°01'612.1
2017-Aug-19 06:30N 54°33' W 000°06'612.0
2017-Aug-19 06:01N 54°38' W 000°12'611.9
2017-Aug-19 05:31N 54°43' W 000°17'3212.0
2017-Aug-19 02:49N 55°10' W 000°47'1011.7
2017-Aug-19 01:56N 55°19' W 000°57'913.3
2017-Aug-19 01:15N 55°27' W 001°06'312.0
2017-Aug-19 01:00N 55°29' W 001°08'611.7
2017-Aug-19 00:30N 55°34' W 001°14'611.7
2017-Aug-19 00:00N 55°38' W 001°21'1012.0
2017-Aug-18 23:09N 55°46' W 001°33'211.9
2017-Aug-18 23:00N 55°47' W 001°36'612.1
2017-Aug-18 22:30N 55°50' W 001°45'612.1
2017-Aug-18 22:01N 55°54' W 001°53'1312.1
2017-Aug-18 20:56N 56°00' W 002°14'512.1
2017-Aug-18 20:30N 56°02' W 002°22'612.0
2017-Aug-18 20:00N 56°05' W 002°32'611.6
2017-Aug-18 19:30N 56°06' W 002°42'612.3
2017-Aug-18 19:00N 56°05' W 002°53'612.2
2017-Aug-18 18:30N 56°03' W 003°03'713.8
2017-Aug-18 18:00N 56°02' W 003°15'5 0.2
2017-Aug-17 08:39N 56°00' W 003°24'3 8.8
2017-Aug-17 08:21N 56°01' W 003°20'513.3
2017-Aug-17 08:00N 56°03' W 003°12'714.3
2017-Aug-17 07:31N 56°04' W 002°59'611.4
2017-Aug-17 07:00N 56°06' W 002°50'714.0
2017-Aug-17 06:31N 56°08' W 002°38'917.1
2017-Aug-17 06:00N 56°11' W 002°24'815.6
2017-Aug-17 05:31N 56°17' W 002°14'817.0
2017-Aug-17 05:01N 56°25' W 002°10'816.6
2017-Aug-17 04:31N 56°33' W 002°06'816.2
2017-Aug-17 04:01N 56°41' W 002°01'1416.0
2017-Aug-17 03:06N 56°55' W 001°54'515.7
2017-Aug-17 02:49N 56°59' W 001°51'515.4
2017-Aug-17 02:30N 57°04' W 001°49'815.4
2017-Aug-17 02:01N 57°11' W 001°44'715.0
2017-Aug-17 01:31N 57°18' W 001°40'1414.7
2017-Aug-17 00:33N 57°32' W 001°33'114.6
2017-Aug-17 00:30N 57°32' W 001°33'714.4
2017-Aug-17 00:00N 57°39' W 001°40'714.6
2017-Aug-16 23:30N 57°45' W 001°47'815.4
2017-Aug-16 23:00N 57°51' W 001°56'5115.6
2017-Aug-16 19:46N 58°33' W 002°50'416.0
2017-Aug-16 19:30N 58°36' W 002°53'815.7
2017-Aug-16 19:00N 58°42' W 003°04'816.5
2017-Aug-16 18:30N 58°43' W 003°20'917.3
2017-Aug-16 18:00N 58°43' W 003°36'817.1
2017-Aug-16 17:30N 58°43' W 003°53'917.2
2017-Aug-16 17:01N 58°43' W 004°09'917.5
2017-Aug-16 16:30N 58°43' W 004°26'3016.1
2017-Aug-16 14:39N 58°32' W 005°20'13117.1
2017-Aug-16 07:00N 56°36' W 007°12'4816.0 120 / 251011.010.8 14.511.712.0
2017-Aug-16 03:58N 55°49' W 006°56'815.7
2017-Aug-16 03:28N 55°42' W 006°47'6215.9
2017-Aug-15 23:33N 54°57' W 005°32'117.6
2017-Aug-15 23:29N 54°56' W 005°32'918.0
2017-Aug-15 23:01N 54°48' W 005°24'918.1
2017-Aug-15 22:31N 54°40' W 005°19'918.2
2017-Aug-15 22:01N 54°31' W 005°15'917.4
2017-Aug-15 21:31N 54°22' W 005°15'918.1
2017-Aug-15 21:01N 54°14' W 005°20'917.9
2017-Aug-15 20:30N 54°05' W 005°26'1217.5
2017-Aug-15 19:49N 53°54' W 005°34'86 4.8
2017-Aug-15 01:49N 52°30' W 005°56'619.0
2017-Aug-15 01:30N 52°24' W 005°57'918.9
2017-Aug-15 01:01N 52°14' W 005°58'918.0
2017-Aug-15 00:30N 52°06' W 006°04'918.2
2017-Aug-15 00:01N 52°02' W 006°17'1018.6
2017-Aug-14 23:29N 51°59' W 006°32'1017.9
2017-Aug-14 22:55N 52°03' W 006°47'717.4
2017-Aug-14 22:31N 52°07' W 006°57'5 9.8
2017-Aug-14 22:00N 52°12' W 006°56'4 7.2
2017-Aug-14 21:30N 52°15' W 006°59'2 3.7
2017-Aug-14 21:00N 52°16' W 007°02'0 0.0
2017-Aug-14 19:17N 52°16' W 007°02'0 0.0
2017-Aug-14 18:47N 52°16' W 007°02'0 0.0
2017-Aug-14 18:23N 52°16' W 007°02'0 0.0
2017-Aug-14 15:29N 52°16' W 007°02'0 0.0
2017-Aug-14 14:53N 52°16' W 007°02'0 0.0
2017-Aug-14 14:29N 52°16' W 007°02'0 0.0
2017-Aug-14 13:59N 52°16' W 007°02'0 0.0
2017-Aug-14 13:29N 52°16' W 007°02'0 0.0
2017-Aug-14 12:59N 52°16' W 007°02'0 0.0
2017-Aug-14 12:29N 52°16' W 007°02'0 0.0
2017-Aug-14 11:47N 52°16' W 007°02'0 0.0
2017-Aug-14 09:53N 52°16' W 007°02'0 1.2
2017-Aug-14 09:30N 52°16' W 007°01'2 4.3
2017-Aug-14 08:59N 52°15' W 006°59'4 8.7
2017-Aug-14 08:30N 52°11' W 006°56'4 8.9
2017-Aug-14 08:00N 52°06' W 006°58'612.1
2017-Aug-14 07:30N 52°00' W 006°55'612.1
2017-Aug-14 06:59N 51°54' W 006°52'8612.1
2017-Aug-13 23:52N 50°34' W 006°03'512.0
2017-Aug-13 23:29N 50°30' W 005°60'612.0
2017-Aug-13 23:00N 50°25' W 005°57'611.9
2017-Aug-13 22:29N 50°19' W 005°54'612.1
2017-Aug-13 22:00N 50°13' W 005°54'611.8
2017-Aug-13 21:29N 50°07' W 005°54'612.2
2017-Aug-13 21:00N 50°01' W 005°54'612.0
2017-Aug-13 20:30N 49°55' W 005°54'2911.2
2017-Aug-13 17:57N 49°43' W 005°14'712.1
2017-Aug-13 17:24N 49°41' W 005°04'2111.9
2017-Aug-13 15:38N 49°45' W 004°32'312.0
2017-Aug-13 15:24N 49°45' W 004°28'612.0
2017-Aug-13 14:53N 49°47' W 004°19'512.0
2017-Aug-13 14:30N 49°48' W 004°12'814.9
2017-Aug-13 14:00N 49°48' W 004°00'237.1 190 / 51022.510.8 16.810.718.0
2017-Aug-13 13:57N 49°49' W 004°02'512.1
2017-Aug-13 13:30N 49°50' W 003°54'612.2
2017-Aug-13 13:00N 49°52' W 003°44'612.1
2017-Aug-13 12:30N 49°53' W 003°35'612.2
2017-Aug-13 12:00N 49°55' W 003°26'612.2
2017-Aug-13 11:30N 49°56' W 003°17'612.2
2017-Aug-13 11:00N 49°58' W 003°08'612.0
2017-Aug-13 10:30N 49°59' W 002°59'612.0
2017-Aug-13 10:00N 50°01' W 002°50'612.1
2017-Aug-13 09:30N 50°02' W 002°40'2512.8
2017-Aug-13 07:35N 50°09' W 002°04'218.8
2017-Aug-13 07:30N 50°09' W 002°01'919.5
2017-Aug-13 07:01N 50°12' W 001°47'1020.1
2017-Aug-13 06:30N 50°15' W 001°32'4620.5
2017-Aug-13 04:17N 50°26' W 000°23'619.2
2017-Aug-13 03:59N 50°28' W 000°14'918.6
2017-Aug-13 03:30N 50°31' W 000°01'918.1
2017-Aug-13 03:00N 50°34' E 000°13'917.6
2017-Aug-13 02:30N 50°36' E 000°26'816.7
2017-Aug-13 02:00N 50°39' E 000°38'816.5
2017-Aug-13 01:30N 50°44' E 000°48'916.3
2017-Aug-13 00:59N 50°49' E 000°60'816.5
2017-Aug-13 00:30N 50°55' E 001°08'917.3
2017-Aug-13 00:00N 51°02' E 001°16'510.9
2017-Aug-12 23:30N 51°07' E 001°20'1 1.1
2017-Aug-12 22:59N 51°07' E 001°19'0 0.0
2017-Aug-12 22:26N 51°07' E 001°19'0 0.0
2017-Aug-12 21:56N 51°07' E 001°19'0 0.0
2017-Aug-12 21:26N 51°07' E 001°19'0 0.0
2017-Aug-12 20:56N 51°07' E 001°19'0 0.0
2017-Aug-12 20:29N 51°07' E 001°19'0 0.0
2017-Aug-12 19:56N 51°07' E 001°19'0 0.0
2017-Aug-12 08:58N 51°07' E 001°19'0 0.0
2017-Aug-12 08:28N 51°07' E 001°19'0 0.0
2017-Aug-12 07:52N 51°07' E 001°19'0 0.0
2017-Aug-12 07:22N 51°07' E 001°19'0 0.0
2017-Aug-12 06:16N 51°07' E 001°19'0 0.0
2017-Aug-12 05:52N 51°07' E 001°19'0 0.0
2017-Aug-12 05:16N 51°07' E 001°19'0 0.0
2017-Aug-12 04:41N 51°07' E 001°19'0 0.8
2017-Aug-12 04:30N 51°07' E 001°20'4 8.4
2017-Aug-12 04:00N 51°08' E 001°26'611.5
2017-Aug-12 03:30N 51°10' E 001°35'713.7
2017-Aug-12 03:01N 51°13' E 001°44'713.8
2017-Aug-12 02:30N 51°20' E 001°49'612.5
2017-Aug-12 02:00N 51°25' E 001°53'611.7
2017-Aug-12 01:30N 51°29' E 001°60'713.8
2017-Aug-12 01:00N 51°34' E 002°08'714.2
2017-Aug-12 00:30N 51°39' E 002°16'1114.9
2017-Aug-11 23:47N 51°47' E 002°28'714.9
2017-Aug-11 23:20N 51°52' E 002°35'7714.8
2017-Aug-11 18:09N 53°08' E 002°40'212.5
2017-Aug-11 18:00N 53°10' E 002°41'24715.4
2017-Aug-11 02:00N 57°12' E 004°06'10321.1 210 / 201017.810.8 15.011.714.0
2017-Aug-10 21:07N 58°54' E 004°35'317.5
2017-Aug-10 20:57N 58°57' E 004°36'817.3
2017-Aug-10 20:29N 59°04' E 004°38'2117.4
2017-Aug-10 19:16N 59°25' E 004°44'518.1
2017-Aug-10 19:00N 59°30' E 004°45'917.9
2017-Aug-10 18:30N 59°39' E 004°48'918.0
2017-Aug-10 18:00N 59°48' E 004°50'917.8
2017-Aug-10 17:30N 59°57' E 004°53'917.7
2017-Aug-10 17:00N 60°06' E 004°54'815.2
2017-Aug-10 16:30N 60°10' E 005°08'612.7
2017-Aug-10 16:00N 60°16' E 005°09'612.3
2017-Aug-10 15:30N 60°22' E 005°10'  

Dump ship's entire track history